{"data":{"norad_id":52286,"intl_designator":"2022-041AB","name":"STARLINK-3802","alt_names":[],"object_type":"PAYLOAD","status":"ACTIVE","operator":null,"country":"US","launch_date":"2022-04-21","launch_site_code":"AFETR","launch_vehicle":null,"mission":null,"orbit_class":"UNKNOWN","rcs_meters":null,"size_class":null,"mass_kg":null,"dimensions":null,"purposes":["comms"],"wikipedia_slug":null,"has_3d_model":false,"image_url":null,"decayed_at":null,"tle_current":{"epoch":"2026-05-25T05:01:04.890432Z","epoch_age_seconds":50135,"freshness":"FRESH","line1":"1 52286U 22041AB  26145.20908438  .00000410  00000+0  43836-4 0  9996","line2":"2 52286  53.2143 115.6100 0001414  68.9520 291.1623 15.08833437226058","mean_motion":15.08833437,"eccentricity":0.0001414,"inclination_deg":53.2143,"raan_deg":115.61,"arg_perigee_deg":68.952,"mean_anomaly_deg":291.1623,"bstar":4.3836e-5,"rev_number":22605,"period_min":95.437969804218,"perigee_km":538.78525837869,"apogee_km":540.74164062581,"semimajor_km":6917.9004495022,"source":"CELESTRAK","updated_at":"2026-05-25T13:38:17.084889Z"}}}